User: anonymous   Login
Location: Peach Mountain Observatory
(42.3967°N, 83.9367°W)
Time: 12:57:27
(UTC-05:00)
Language:

SR - Orbit

View from above orbital plane
View from above orbital plane
View from above satellite
View from above satellite

Ground track
Ground track

The orbit data is extracted from the following two-line orbital elements,

1    46U 60007B   20020.67941495 -.00000032 +00000-0 +16908-4 0  9996
2    46 066.6907 088.5023 0216791 243.0274 114.8549 14.49269922117559
Epoch (UTC): 20 January 2020 16:18:21
Eccentricity: 0.0216791
inclination: 66.6907°
perigee height: 574 km
apogee height: 882 km
right ascension of ascending node: 88.5023°
argument of perigee: 243.0274°
revolutions per day: 14.49269922
mean anomaly at epoch: 114.8549°
orbit number at epoch: 11755

The dashed part of the orbit path shows where the satellite is in the earth's shadow,  

DLR